Tracking 28790 objects as of 19-Apr-2024
HD Live streaming from Space Station
objects crossing your sky now

SL-12 R/B(2)

Track SL-12 R/B(2) now!


NORAD ID: 23683
Int'l Code: 1995-054D
Perigee: 35,698.3 km
Apogee: 35,883.4 km
Inclination: 14.9 °
Period: 1,435.9 minutes
Semi major axis: 42161 km
RCS: 1.5848 m2 (large)
Launch date: October 11, 1995
Source: Commonwealth of Independent States (former USSR) (CIS)
Launch site: TYURATAM MISSILE AND SPACE COMPLEX (TTMTR)

Note: This is a ROCKET BODY
Your satellite tracking list
Your tracking list is empty




NASA's NSSDC Master Catalog

Two Line Element Set (TLE):
1 23683U 95054D   24109.89462793  .00000050  00000-0  00000-0 0  9994
2 23683  14.8846   5.2974 0021961  83.9469  92.0444  1.00282120104453
Source of the keplerian elements: AFSPC